RH
100 100 100 100 100 100 100 100 100 100 100 100 100 100 100 100 94 93 83 62 50 46 53 36 26 26 24 27 32 40 47 51 53 53 52 55 49 38
100 100 100 100 100 100 100 100 100 100 99 100 100 100 95 75 55 57 47 60 54 53 49 27 26 28 27 32 33 42 47 53 60 58 58 60 49 42
100 100 100 100 100 100 100 100 100 100 100 79 57 48 44 45 42 49 56 69 67 50 34 31 35 31 34 40 40 44 48 57 65 68 65 55 51 45
97 94 93 93 100 100 100 82 61 39 32 30 40 42 38 47 53 67 73 69 49 49 45 42 42 38 42 46 50 57 61 68 66 58 54 53 52 52
27 29 37 42 45 35 32 30 33 30 32 38 36 41 42 43 54 77 71 59 56 62 52 51 48 49 46 51 59 59 61 60 63 66 67 65 66 66
27 27 28 28 28 27 29 31 30 35 32 37 36 39 35 57 81 70 54 74 72 73 73 59 53 52 54 56 64 68 66 69 72 75 74 72 67 64
25 27 28 27 26 30 33 34 32 33 31 49 34 41 58 80 70 54 76 81 86 95 74 63 62 59 54 56 59 63 70 72 72 69 70 75 77 75
27 28 31 33 32 32 32 34 33 32 34 35 38 42 79 72 66 70 94 100 100 92 80 73 68 63 67 69 66 68 72 74 74 76 81 80 77 73
30 30 30 29 31 32 33 33 31 31 33 32 34 75 76 78 79 95 100 99 91 82 80 77 72 66 73 73 71 69 69 71 72 73 74 74 73 73
29 29 30 33 34 34 34 31 27 30 33 46 51 64 78 86 99 100 100 86 84 78 82 73 75 74 73 74 71 69 72 71 72 72 71 70 70 68
28 31 30 31 32 36 38 32 33 34 40 57 64 73 91 100 100 100 94 92 83 88 80 76 75 74 73 70 72 76 74 76 75 74 74 74 73 72
27 27 28 32 36 36 36 38 39 47 53 58 74 90 100 100 100 100 92 91 94 96 87 79 77 78 79 79 78 75 74 75 77 77 76 77 75 67
32 34 39 42 43 42 44 48 50 56 63 79 93 100 100 100 100 100 100 92 98 99 81 78 84 84 81 84 85 79 77 80 78 76 77 73 59 42
31 34 39 39 41 43 49 52 63 74 87 88 100 100 100 100 100 100 100 99 95 91 78 83 90 90 87 86 82 78 81 82 80 82 76 55 37 31
34 38 40 46 55 59 65 78 83 100 98 100 100 100 100 100 100 100 99 94 87 82 84 93 93 90 88 88 80 80 81 77 83 80 57 37 32 27
54 51 56 63 70 78 83 92 98 100 100 100 100 100 100 99 95 96 88 82 86 90 95 100 98 92 91 86 85 83 83 82 80 60 40 32 24 20
83 85 85 85 85 92 94 98 99 100 100 100 100 100 100 91 84 84 84 88 94 97 100 100 96 94 90 86 88 86 86 87 71 44 37 24 19 19
89 91 95 97 97 98 99 100 100 100 98 93 91 96 99 96 95 92 92 97 99 98 97 92 95 95 94 90 92 90 90 76 49 40 27 22 19 20
90 90 92 92 96 99 98 95 96 94 93 97 100 100 100 100 100 99 100 97 100 99 94 91 95 99 100 99 97 88 75 51 42 26 22 23 24 20
100 97 97 94 98 96 94 95 94 95 95 92 92 92 95 96 95 95 96 100 99 93 100 99 97 100 100 100 98 72 51 42 29 22 22 28 31 28
100 100 94 90 93 95 100 100 100 100 100 100 100 98 97 100 98 96 98 98 94 100 100 94 96 99 98 98 92 61 42 29 23 25 37 46 40 34
99 99 100 100 98 97 99 100 100 100 100 100 100 100 100 100 100 100 100 99 97 100 100 97 98 94 92 85 68 54 36 21 24 43 53 47 32 23
91 89 88 91 96 100 100 100 100 100 100 100 100 100 100 100 100 100 100 97 100 96 91 98 97 94 82 65 56 46 24 23 36 61 37 22 20 17
Wind_Speed
105 105 105 105 106 106 107 108 109 111 114 116 116 119 122 122 125 124 120 116 110 103 99 84 78 67 62 56 50 44 42 41 39 36 34 34 36 33
107 107 108 109 110 111 112 112 113 115 119 120 122 122 124 122 118 114 113 105 99 94 91 78 69 63 57 52 46 42 41 38 37 36 31 32 33 30
111 111 111 113 114 115 117 116 118 121 122 119 117 113 112 111 110 104 101 88 91 83 79 72 63 58 52 48 44 41 38 34 33 33 31 27 27 26
116 115 114 115 117 118 118 116 113 112 111 110 107 108 108 103 99 91 89 89 74 72 68 65 60 54 46 41 37 34 34 32 29 25 24 24 25 27
111 110 110 109 109 110 108 107 106 108 107 106 106 103 101 96 91 86 81 71 67 66 65 60 57 52 46 38 34 31 28 26 26 27 28 29 30 31
106 107 106 106 105 105 105 105 106 105 102 99 98 95 90 86 82 76 67 63 62 62 63 60 54 49 43 42 40 37 34 33 33 34 33 34 35 34
105 105 105 105 104 104 106 106 104 103 99 90 88 86 83 79 72 64 58 61 58 61 62 57 53 51 46 41 40 40 41 42 41 41 40 39 38 39
103 103 103 103 104 100 98 94 94 94 89 83 83 83 79 73 64 57 58 59 60 61 60 55 54 50 46 43 42 40 41 42 44 43 43 44 44 43
105 105 102 99 97 92 91 91 88 87 83 81 78 75 66 63 56 54 57 59 61 60 57 52 52 52 48 47 47 45 44 44 43 44 45 47 48 49
94 93 91 89 89 86 84 84 81 79 77 72 70 64 57 54 53 53 60 61 59 59 55 52 52 54 50 49 51 50 48 47 47 48 50 51 53 56
85 84 83 83 84 83 82 79 74 71 67 63 59 56 53 50 51 58 61 62 61 59 56 55 56 56 54 53 51 50 49 49 51 53 55 58 62 66
77 78 77 76 75 75 73 70 65 62 58 57 54 49 49 50 56 60 63 63 62 60 60 60 60 59 57 53 55 53 52 52 54 57 60 65 70 72
68 67 66 66 65 64 62 60 59 57 55 51 46 47 51 53 58 63 65 66 62 62 62 61 62 63 60 59 57 56 55 57 60 62 66 71 73 71
63 61 60 60 60 59 58 56 53 52 50 46 45 49 53 56 61 65 65 65 64 64 63 64 65 68 63 62 60 58 59 62 64 68 73 74 70 63
55 54 54 53 52 51 50 49 47 46 48 44 46 53 59 63 63 65 67 67 65 65 65 67 71 68 66 65 63 61 63 63 67 72 74 70 64 59
48 49 49 48 48 47 46 45 46 48 50 50 52 57 62 65 66 67 68 67 66 67 68 71 71 67 67 66 65 66 67 69 73 74 70 64 60 56
44 45 44 45 47 48 49 48 49 53 54 55 57 62 67 67 66 67 68 69 68 70 71 71 68 67 67 66 67 67 69 72 75 72 66 63 57 53
43 43 43 44 46 48 51 51 54 55 56 57 60 62 64 65 65 64 64 67 70 70 70 68 66 65 67 68 68 69 72 75 72 66 62 62 58 51
42 41 42 43 44 45 46 47 49 50 53 57 60 63 64 63 63 65 66 68 66 67 68 67 66 67 69 68 71 71 75 72 68 61 58 58 60 54
46 46 49 49 49 50 49 49 49 50 52 54 56 58 60 63 64 62 62 64 64 63 63 64 64 65 64 67 74 76 71 68 62 59 56 55 56 58
47 48 50 51 51 50 50 52 54 55 56 59 60 60 59 61 62 61 61 62 63 64 65 64 64 63 66 69 73 75 70 61 58 59 57 56 56 57
45 46 49 52 53 52 53 54 55 56 57 58 60 59 59 61 63 63 64 66 67 68 70 70 68 68 68 69 69 70 67 60 57 57 55 52 55 55
49 50 50 51 52 54 55 57 58 59 61 62 63 65 65 67 67 68 71 72 73 73 71 70 70 70 70 67 66 64 63 58 57 58 52 45 47 50
Wind_Direction
279 280 281 283 284 286 288 290 290 291 293 295 297 297 299 299 302 302 304 307 310 312 313 312 313 312 311 308 306 303 297 297 292 293 290 291 289 284
278 279 280 282 284 286 287 289 290 292 293 295 296 297 297 299 301 303 303 306 309 311 310 313 313 312 311 307 302 297 293 295 291 292 293 291 288 288
278 279 280 281 283 286 287 288 290 289 291 294 295 297 297 299 302 302 303 305 306 306 309 311 313 313 310 304 300 296 292 289 287 289 290 287 287 291
278 278 280 282 283 284 286 288 290 290 292 293 294 295 297 299 300 300 302 304 303 304 308 310 313 312 307 302 299 296 291 291 289 286 288 292 291 292
279 280 280 282 283 284 287 287 289 289 291 293 293 295 298 299 298 298 301 300 301 303 306 311 313 309 306 300 295 293 294 292 289 290 291 291 292 292
279 280 281 282 283 284 285 286 287 288 291 291 293 295 296 296 297 299 297 296 301 301 306 312 311 308 303 298 292 289 286 284 283 282 282 286 289 288
277 279 279 280 282 283 284 285 284 286 289 290 294 294 293 293 296 295 293 295 298 301 308 310 309 307 305 299 292 286 283 283 281 279 280 281 281 281
276 277 277 279 280 281 282 284 284 286 287 289 291 293 291 292 291 293 292 292 294 302 307 307 308 307 303 303 298 292 289 286 283 281 280 279 279 278
277 277 279 279 279 281 283 283 286 286 286 284 287 288 287 290 289 289 286 290 296 301 304 304 307 307 301 301 301 298 293 289 286 284 281 279 278 277
275 276 277 278 279 281 282 284 286 286 286 284 284 285 288 285 286 284 287 293 298 301 301 304 303 305 300 298 299 297 294 291 288 285 282 281 280 279
275 276 276 277 278 280 281 283 283 283 282 280 280 282 281 278 280 284 289 294 298 299 301 302 304 304 302 297 296 296 294 292 289 287 286 285 284 283
275 276 275 275 276 276 279 278 278 278 279 278 279 278 277 279 283 284 288 294 295 297 298 301 304 307 304 298 298 296 295 293 291 290 290 289 288 287
274 274 274 275 276 276 276 275 275 275 275 275 273 273 277 278 278 282 288 292 293 294 297 302 305 307 302 299 299 298 297 296 296 296 294 293 292 291
270 271 271 272 271 271 271 273 273 272 270 271 270 272 273 274 279 285 286 289 292 294 298 302 304 305 299 299 298 298 298 299 299 299 298 297 296 292
269 269 269 270 271 272 272 271 270 267 268 269 270 270 276 280 281 282 285 288 292 294 297 300 302 301 298 298 298 299 300 300 301 301 301 299 295 291
273 271 272 273 273 273 271 271 265 266 267 272 268 270 275 278 280 283 288 290 291 296 298 298 301 299 298 298 300 302 302 304 304 304 301 297 293 291
274 274 274 274 272 272 272 270 269 269 268 267 265 268 271 278 283 287 288 290 294 295 296 297 297 298 298 299 301 302 303 305 304 304 301 297 293 292
275 276 275 274 273 272 272 272 271 272 275 275 270 270 277 282 286 289 291 291 292 295 294 296 298 298 298 300 302 303 304 304 304 302 300 298 295 292
280 278 277 277 276 275 275 274 273 272 272 272 272 276 280 284 287 287 289 292 293 295 296 297 298 298 299 302 302 303 304 304 303 301 300 298 296 292
279 281 281 280 279 278 279 280 279 279 279 280 281 282 283 285 287 290 291 293 294 295 298 299 300 299 301 301 302 302 302 303 302 302 300 296 294 291
277 274 276 280 282 283 282 281 281 281 281 281 282 283 285 287 288 289 290 291 292 294 296 299 301 301 301 302 302 302 302 302 304 303 301 299 295 290
276 274 275 278 279 280 280 281 281 282 282 282 282 284 285 286 287 289 289 289 290 293 295 297 299 299 300 301 301 301 301 304 305 303 301 301 295 291
277 276 275 274 274 275 276 277 277 278 280 281 282 282 283 285 286 286 286 288 291 292 293 295 295 298 299 301 302 301 301 305 305 303 301 301 296 291